THORAD DELTA 1 DEB, 8595

Orbit data source: Space-Track

THORAD DELTA 1 DEB, 8595 is space debris in SSO originally from a launch on Fri, 15 Nov 1974 UTC launched from the Air Force Western Test Range (AFWTR). Debris objects in space refer to the collection of defunct objects orbiting the Earth. Examples of debris include non-operational satellites, rocket bodies, and fragments generated from explosions, collisions, or faulty payload assembly.

Loading next visibility...
Identifier
8595, 1974-089DJ
Orbit
SSO
Country
Flag of USUS
Related business
Manufacturer
Unknown
Mission
Spacecraft
Bus & Motor
Unknown
Mass
Unknown
Launch date (UTC)
1974-11-15 (52 years ago)
Launch vehicle
Unknown
Launch site
Air Force Western Test Range (AFWTR)
Object type
Payload
Rocket body
Debris
Shape & HBR
Unknown shape, 0.2 m
Radar Cross Section
Medium (>0.1 m² and <1 m²)

Expand to show TLE details & history
Last TLE update: 17 hours ago

TLE from 17 hours ago
0 THORAD DELTA 1 DEB
1 08595U 74089DJ  26175.29142366 -.00000004  00000-0  30105-3 0  9996
2 08595 101.4206  16.6118 0149723  80.4175 100.2062 12.25480256308284
Epoch: 2026-06-24T06:59Z
TLE epoch observation values (Epoch: 2026-06-24T06:59:39.004Z)
Latitude
-2.3772°
Longitude
178.77037°
Altitude
1,594.459 km
Speed
7.062 km/s
True Right ascension
13h 04m 32s
True Declination
-2° 21' 52"
Sunlit
Object was in daylight at epoch
Visualization orbit readout
Latitude
Unknown
Longitude
Unknown
Altitude
Unknown
Speed
Unknown
Apparent Right ascension
Unknown
Apparent Declination
Unknown
Sunlit
N/A
Visualization observer readout
Local Sidereal Time
10:47:43
Azimuth
Unknown
Elevation
Unknown
Doppler factor
Unknown
Orbital elements
Apogee altitude
1,685.267 km
Perigee altitude
1,447.374 km
Semi-major axis
7,944.457 km
Eccentricity
0.01497
Inclination
101.4206°
RAAN
16.6118°
Arg. of periapsis
80.4175°
True anomaly
101.88893°
Mean anomaly
100.2062°
Eccentric anomaly
101.04815°
Mean motion
3.06512 °/min
Orbital period
117.45 mins
BSTAR
0.00030105
Loading maneuver chart data...
Computing Atmospheric mass density...

Documentation

Showing up to 5 results
|